Other Public Products
Issued by NWS Grand Forks, ND

Home | Current Version | Previous Version | Text Only | Print | Product List | Glossary Off
Versions: 1 2 3 4 5 6 7 8 9 10 11 12 13 14 15 16 17 18 19 20 21 22 23 24 25 26 27 28 29 30 31 32 33 34 35 36 37 38 39 40 41 42 43 44 45 46 47 48 49 50

746
FPUS83 KFGF 141110
OPUFGF
PRAIRIE TO PINES WEATHER ROUNDUP
NATIONAL WEATHER SERVICE EASTERN NORTH DAKOTA/GRAND FORKS ND
500 AM CST SUN FEB 14 2016

 **SATELLITE DATA USED TO AUGMENT SKY COVER AT AUTOMATED STATIONS**
 *****  WEATHER ACROSS EASTERN NORTH DAKOTA  *****

CITY           SKY/WX    TMP DP  RH WIND       PRES   REMARKS
GRAND FORKS    MIX PCPN  14   8  77 S20       29.91F WCI  -3
GRAND FORKS AF CLOUDY    12   7  79 S21       29.88F WCI  -6
GRAND CITY NWS NOT AVBL
BUXTON         NOT AVBL
DEVILS LAKE    FLURRIES  14  10  84 S16       29.77F WCI  -2
FARGO          LGT SNOW  14   8  77 S21G32    29.94F WCI  -4
WAHPETON ARPT  CLOUDY    12   9  85 SE15G23   29.96S WCI  -4
$$

 *****  WEATHER ACROSS CENTRAL AND WESTERN NORTH DAKOTA  *****

CITY           SKY/WX    TMP DP  RH WIND       PRES   REMARKS
JAMESTOWN      LGT SNOW  13  10  88 S18       29.80S FOG     WCI  -4
BISMARCK       CLOUDY    23  20  88 CALM      29.77F FOG
MINOT          LGT SNOW  24  18  77 NW9       29.72F WCI  14
MINOT AFB      LGT SNOW  20  20  99 CALM      29.72S FOG
GARRISON         N/A     26  23  88 NW18      29.73S WCI  13
WILLISTON      CLOUDY    33  29  85 W9        29.76F
DICKINSON      PTCLDY    31  28  89 W16       29.73F WCI  20
HETTINGER      CLEAR     30  27  88 W10       29.78F WCI  21
$$

 *****  OTHER OBSERVATIONS NORTHEAST NORTH DAKOTA  *****

CITY           SKY/WX    TMP DP  RH WIND       PRES   REMARKS
WALHALLA         N/A     10  10 100 S16       29.84F WCI  -7
LANGDON        NOT AVBL
CAVALIER       NOT AVBL
GRAFTON        NOT AVBL
CANDO          NOT AVBL
FORT TOTTEN      N/A     13  10  87 S14       29.95  WCI  -2
ROLLA          LGT SNOW  10   9  92 S7        29.73S WCI   0
RUGBY          NOT AVBL
 ***** THE ABOVE OBSERVATIONS ARE NON NWS ARE NOT QUALITY
        CONTROLLED AND MAY MIS-REPORT RAIN FOR SNOW...
$$

 *****  OTHER OBSERVATIONS SOUTHEAST NORTH DAKOTA *****

CITY           SKY/WX    TMP DP  RH WIND       PRES   REMARKS
COOPERSTOWN    NOT AVBL
VALLEY CITY    NOT AVBL
OAKES          CLOUDY    14  12  92 S12       29.86S FOG     WCI   0
GWINNER        CLOUDY    14  12  92 SE8       29.88F VSB 1   WCI   3
SHEYENNE NWR     N/A     12   8  83 S13       29.95  WCI  -3
BUFFALO        NOT AVBL
WYNDMERE       NOT AVBL
 ***** THE ABOVE OBSERVATIONS ARE NON NWS ARE NOT QUALITY
       CONTROLLED AND MAY MIS-REPORT RAIN FOR SNOW...
$$

  *****  WEATHER ACROSS NORTHERN MINNESOTA  *****

CITY           SKY/WX    TMP DP  RH WIND       PRES   REMARKS
FLAG ISLAND    CLOUDY     5  -2  72 S21       29.96F WCI -16
WARROAD        CLOUDY     9   0  66 S12       29.96F WCI  -6
ROSEAU         FLURRIES  10   3  72 SE13      29.93F WCI  -5
HALLOCK        LGT SNOW  12   9  85 S21       29.90F WCI  -6
THF RVR FALLS  CLOUDY    12   3  67 S18       29.93F WCI  -5
HALSTAD        NOT AVBL
FOSSTON        CLOUDY     9   1  72 SE10      29.94F WCI  -6
BAUDETTE       CLOUDY     5  -8  55 SE12      29.97F WCI -11
WASKISH        CLOUDY     9  -4  56 SE10      29.99F WCI  -6
CROOKSTON      LGT SNOW  12   9  85 S18       29.95F WCI  -5
$$
  *****  WEATHER ACROSS CENTRAL AND WEST MINNESOTA  *****

CITY           SKY/WX    TMP DP  RH WIND       PRES   REMARKS
BEMIDJI        CLOUDY     7  -3  63 SE12      29.97F WCI  -9
PARK RAPIDS    CLOUDY     9  -1  64 SE15      29.97F WCI  -8
WADENA         LGT SNOW   9   1  72 SE17      29.98F WCI -10
DETROIT LAKES  CLOUDY    12   5  73 S15       29.95F WCI  -4
MOORHEAD       MIX PCPN  12   9  85 S20       29.95F WCI  -6
FERGUS FALLS   LGT SNOW  10   7  85 SE16      30.00S WCI  -7
ELBOW LAKE     LGT SNOW  11   9  89 E20       29.96F VSB 1   WCI  -7
MORRIS MN      LGT SNOW  12   9  85 SE20      29.96F WCI  -6
STAPLES        CLOUDY     9   0  66 SE8       30.01F WCI  -4
WHEATON        LGT SNOW  14  10  85 SE18      29.96F WCI  -3
$$
  *****  WEATHER ELSEWHERE ACROSS MINNESOTA  *****

CITY           SKY/WX    TMP DP  RH WIND       PRES   REMARKS
DULUTH         PTCLDY     0 -13  54 SE9       30.12F WCI -15
INTRNTL FALLS  CLOUDY    -1 -14  53 SE8       30.04F WCI -15
ELY            CLOUDY   -22 -27  76 SE3       30.13F
CLOQUET        CLOUDY    -2 -15  55 E5        30.12F WCI -12
BRAINERD       CLOUDY     7  -5  57 SE9       30.05F WCI  -7
HIBBING        CLOUDY    -6 -14  68 SE6       30.09F WCI -19
ALEXANDRIA     LGT SNOW   9   4  80 SE14      29.98F WCI  -7
SAINT CLOUD    CLOUDY    10  -1  61 SE12      30.07F WCI  -5
MINNEAPOLIS    CLOUDY    10  -2  58 E16       30.12F WCI  -7
$$

  *****  WEATHER ACROSS SOUTH DAKOTA  *****

CITY           SKY/WX    TMP DP  RH WIND       PRES   REMARKS
SIOUX FALLS    LGT SNOW  14   9  80 SE13      29.89F WCI   0
BROOKINGS      LGT SNOW  11   8  88 SE16      29.87F FOG     WCI  -6
WATERTOWN      LGT SNOW  12   7  80 S17       29.85F WCI  -5
HURON          LGT SNOW  15  11  83 SE14      29.86F FOG     WCI   0
SISSETON         N/A     13  10  88 S14       29.91F WCI  -2
ABERDEEN       LGT SNOW  16  11  80 S18       29.86R WCI   0
MITCHELL       CLOUDY    16  12  84 SE14      29.87R WCI   2
PIERRE         LGT SNOW  24  23  96 S3        29.80R FOG
MOBRIDGE       CLOUDY    22  20  92 SE6       29.76S FOG     WCI  14
RAPID CITY     CLEAR     28  23  81 W7        29.85F WCI  21
$$

  *****  SOME WEATHER IN NEARBY STATES *****

CITY           SKY/WX    TMP DP  RH WIND       PRES   REMARKS
GLASGOW MT     CLOUDY    30  25  81 W6        29.77F WCI  24
GREAT FALLS MT PTCLDY    36  24  62 SW22      29.79F
CHEYENNE WY    CLOUDY    37  13  37 NW7       29.93F
SCOTTSBLUFF NE CLEAR     26  21  81 CALM      29.95F
OMAHA NE       CLOUDY    21   8  57 S21       29.96F WCI   5
DES MOINES IA  FLURRIES  17   9  70 SE14      30.08F WCI   3
DAVENPORT IA   FLURRIES  17   6  62 SE17      30.25F WCI   1
CHICAGO IL     MOCLDY    13   3  64 S8        30.39F WCI   2
EAU CLAIRE WI  CLOUDY     2 -11  54 SE8       30.23F WCI -12
LA CROSSE WI   CLOUDY    10  -3  55 E7        30.25F WCI  -1
$$

  *****  SOME NATIONAL WEATHER *****

CITY           SKY/WX    TMP DP  RH WIND       PRES   REMARKS
LA GUARDIA NY  PTCLDY     3 -11  52 NW22G36   30.44R WCI -19
RALEIGH NC     PTCLDY    15   0  51 NE5       30.51R WCI   8
ATLANTA GA     CLOUDY    29   8  41 E12       30.33R WCI  19
NEW ORLEANS LA PTCLDY    48  39  71 E3        30.21F
OKLAHOMA CITY  PTCLDY    46  42  86 S9        29.88R
ALBUQUERQUE NM CLOUDY    44  15  31 NW3       30.11S
SALT LAKE CITY FOG       29  28  96 CALM      30.22F VSB 1/4
LOS ANGELES CA FOG       51  50  96 CALM      30.05F VSB 1/4
BOISE ID       LGT RAIN  40  37  89 SE5       30.21R
SEATTLE WA     LGT RAIN  48  46  93 S13       30.13S FOG
$$

*** WEATHER ACROSS MANITOBA...SASKATCHEWAN AND ONTARIO ***
                ***ONTARIO***

CITY           SKY/WX    TMP DP  RH WIND       PRES   REMARKS
GERALDTON      CLEAR    -31 -38  68 CALM      30.24F
THUNDER BAY    FLURRIES -11 -17  77 W3        30.29F
SIOUX LOOKOUT  CLEAR     -9 -15  77 S7        30.06F WCI -24
TORONTO        CLEAR    -11 -22  58 N7        30.52S WCI -26
BIG TROUT LK   PTCLDY    -4 -11  71 S10       30.02F WCI -21
PICKLE LAKE    CLEAR    -13 -20  70 SE5       30.08  WCI -25
DRYDEN         CLEAR     -6 -15  65 S14       30.01F WCI -26
KENORA         FLURRIES   1  -9  60 S16       29.94F WCI -18
$$
                *** MANITOBA***

CITY           SKY/WX    TMP DP  RH WIND       PRES   REMARKS
BRANDON        FLURRIES  10   9  92 SE5       29.75F WCI   2
DAUPHIN        CLOUDY    10   7  85 SE2       29.75F
ISLAND LAKE    CLOUDY     1  -8  66 S9        29.84F WCI -14
PILOT MOUND      N/A     10   9  92 S15         N/A  WCI  -6
THE PAS        FLURRIES   9   3  78 S9        29.66F WCI  -5
THOMPSON       LGT SNOW   3  -2  78 S10       29.67F WCI -12
WINNIPEG       CLOUDY    12   5  73 S21G28    29.88F WCI  -6
LYNN LAKE      FLURRIES   7   5  92 S8        29.48F WCI  -6
CHURCHILL      FLURRIES   5  -4  66 S12G17    29.68F WCI -11
$$
                ***SASKATCHEWAN***

CITY           SKY/WX    TMP DP  RH WIND       PRES   REMARKS
ESTEVAN        NOT AVBL
KINDERSLEY     CLEAR     12  10  92 S7        29.65F WCI   2
LLOYDMINSTER   MOCLDY    28  23  80 W3        29.61F
PRINCE ALBERT  FOG       19  18  93 SW7       29.63F VSB 5/8 WCI  10
REGINA         FOG       25  25 100 W13       29.70F VSB 3/8 WCI  13
YORKTON        CLOUDY    16  14  93 S8        29.67F WCI   5
N. BATTLEFORD  CLOUDY    18  18 100 N2        29.65F   C1F1C2F2C3F3C4F4C5F5C6F6C7F7C8F8C9F9CaFaCbFbCcFcCdFdCe!



USA.gov is the U.S. government's official web portal to all federal, state and local government web resources and services.